Location: Brussels
(23.3792°S, 29.1466°E)
Time: 19:26:32
(UTC+00:00)

Daily predictions for brighter satellites

Satellite Brightness Start Highest point End
(mag) Time Altitude Azimuth Time Altitude Azimuth Time Altitude Azimuth
ASC 2 Rocket 4.3 16:41:03 10° W 16:48:16 52° NNW 16:53:10 10° NE
Cosmos 1782 3.5 16:46:56 10° SSE 16:50:07 28° E 16:53:16 10° NE
Cosmos 1833 Rocket 2.9 16:45:57 10° NNW 16:51:34 82° WSW 16:57:14 10° SSE
Cosmos 1356 Rocket 3.3 16:49:50 10° S 16:53:43 82° W 16:57:33 10° N
USA 234 3.4 16:48:49 10° NE 16:55:16 64° SE 17:01:45 10° SSW
Orbus 7S 2.5 16:55:03 10° WSW 16:56:55 61° SSE 17:00:34 10° E
Palapa 6 Rocket 3.5 16:53:36 10° WNW 16:58:07 59° NNE 17:03:41 10° E
Sakura Rocket 2.8 16:55:21 10° WSW 16:59:03 81° SSE 17:03:27 10° ENE
BREEZE-M R/B 4.0 16:55:43 10° SSW 17:00:07 64° SE 17:08:58 10° NE
Cosmos 2084 3.6 16:56:09 10° SSW 17:00:26 79° WNW 17:04:42 10° NNE
Cosmos 1544 Rocket 3.5 17:00:33 10° S 17:04:51 65° E 17:09:06 10° NNE
Cosmos 540 Rocket 3.5 17:00:46 10° N 17:05:44 59° ENE 17:10:46 10° SSE
SL-4 R/B 3.1 17:03:54 10° N 17:06:52 21° NE 17:09:56 10° ESE
Resurs 01 Rocket 2.9 17:04:44 10° SE 17:08:03 21° E 17:11:22 10° NE
Cosmos 1763 Rocket 3.4 17:09:04 10° NNW 17:14:07 89° WSW 17:19:12 10° SSE
Meteor 2-3 Rocket 4.1 17:10:26 10° NNE 17:15:39 42° E 17:20:55 10° SSE
Cosmos 1892 Rocket 4.4 17:12:40 10° NNE 17:16:35 31° E 17:20:32 10° SSE
SJ-7 4.2 17:12:48 10° S 17:16:36 84° WSW 17:20:18 10° NNW
RESURS DK-1 2.7 17:15:17 10° N 17:18:59 39° ENE 17:22:44 10° SE
Nadezhda 4 Rocket 4.3 17:14:04 10° N 17:20:10 71° W 17:26:20 10° S
IRAS Rocket 4.2 17:16:27 10° SSE 17:22:08 75° ENE 17:27:43 10° N
CZ-3B R/B 4.4 17:18:00 10° WSW 17:22:35 45° NW 17:38:00 10° NNE
Atlas Centaur 2 2.9 17:25:28 10° WSW 17:29:53 42° S 17:35:24 10° ESE
Cosmos 1486 Rocket 4.1 17:25:00 10° S 17:30:09 56° ESE 17:33:56 18° NNE
Cosmos 1627 Rocket 4.5 17:24:20 10° N 17:30:32 67° E 17:36:53 10° SSE
Centaur Rocket 3.1 17:33:19 10° WNW 17:37:06 30° NNW 17:37:40 28° NNE
PSLV R/B 4.2 17:33:03 10° S 17:37:08 54° WSW 17:41:07 10° NNW
Lacrosse 5 rocket 2.1 17:34:04 10° SW 17:37:44 43° WNW 17:40:21 17° N
Cosmos 1777 Rocket 4.2 17:35:28 10° S 17:40:37 52° ESE 17:43:26 25° NE
Centaur AC-116 4.3 17:27:55 10° W 17:41:24 63° S 17:44:05 19° ESE
SL-08 R/B 3.6 17:36:56 10° N 17:41:46 74° WNW 17:46:42 10° SSW
Cosmos 1933 3.5 17:38:57 10° S 17:42:42 46° E 17:43:49 35° NE
Hubble Space Telescope 1.7 17:39:56 10° WSW 17:43:32 38° S 17:45:43 20° ESE
Lacrosse 4 Rocket 3.6 17:40:48 10° SW 17:44:10 23° WNW 17:47:30 10° NNW
COBE Rocket 4.1 17:46:49 29° NE 17:48:56 50° ESE 17:53:46 10° S
EXPRESS MD2 2.6 17:47:28 10° SW 17:49:19 51° SSW 17:49:19 51° SSW
Cosmos 2098 Rocket 4.4 17:47:06 10° SSW 17:50:14 28° W 17:52:59 10° NNW
Cosmos 841 Rocket 3.7 17:52:20 24° NNE 17:55:09 47° ENE 18:00:08 10° SSE
Cosmos 1346 Rocket 3.8 17:56:53 10° NNW 18:00:24 43° W 18:03:57 10° S
Cosmos 2082 Rocket 2.1 17:54:57 10° N 18:00:33 75° ENE 18:06:15 10° SSE
SPOT 5 4.3 17:56:39 10° SE 17:59:18 22° ESE 17:59:18 22° ESE
Cosmos 1697 Rocket 3.0 17:59:51 10° S 18:05:18 47° ESE 18:06:30 41° ENE
Cosmos 2360 4.5 17:59:49 10° SSW 18:05:29 66° WNW 18:08:49 25° N
Palapa B4 Rocket 4.1 18:02:38 10° WNW 18:06:11 31° N 18:06:16 31° N
NOSS 3-2 (C) 3.3 18:03:04 10° SW 18:08:26 60° WNW 18:10:23 34° N
IRIDIUM 104 4.5 18:06:26 16° N 18:10:38 74° W 18:15:55 10° S
Meteor 1-31 Rocket 2.7 18:12:12 10° S 18:15:36 72° SW 18:15:36 72° SW
ATLAS 5 CENTAUR R/B 3.6 18:10:38 10° NW 18:17:16 50° WSW 18:24:13 10° SSE
Meteor 2-20 4.4 18:19:21 10° S 18:25:30 80° W 18:28:04 37° N
Cosmos 1354 Rocket 3.9 18:20:40 10° SSW 18:26:01 88° ESE 18:26:46 67° NNE
Gbstr 26 Del rocket 3.2 18:27:54 10° SW 18:32:29 73° WSW 18:32:29 73° WSW
CSL-04 Debris 4.2 18:29:52 10° SSE 18:34:45 62° ESE 18:34:45 62° ESE
COSMOS 2406 3.0 18:35:52 74° NNE 18:36:19 80° ENE 18:42:05 10° SSE
Exosat Rocket 4.1 18:30:09 10° NNW 18:37:58 79° WSW 18:43:40 10° SSE
Resurs 01 Rocket 4.0 18:40:51 10° SSW 18:44:13 22° WSW 18:47:35 10° WNW
SL-4 R/B 3.9 18:40:57 10° WNW 18:44:25 28° SW 18:47:58 10° SSE
Palapa 6 Rocket 3.6 18:40:50 10° W 18:45:49 79° WNW 18:45:49 79° WNW
NOSS 2-3 (E) 4.2 18:41:01 10° SSW 18:47:53 74° WNW 18:48:02 74° NW
Cosmos 1553 Rocket 3.8 18:43:20 10° S 18:49:35 86° E 18:49:43 85° ENE
Meteor 1-26 Rocket 4.2 18:43:33 10° S 18:49:37 88° ESE 18:49:37 88° ESE
NOSS 2-3 (C) 4.2 18:45:52 10° SSW 18:52:28 79° WSW 18:52:28 79° WSW
Mugunghwa Rocket 4.1 18:46:30 10° WNW 18:53:03 73° N 18:53:03 73° N
Cosmos 1980 Rocket 2.8 18:52:25 10° S 18:56:48 48° SSE 18:56:48 48° SSE
CZ-4B R/B 4.4 18:54:30 10° SSE 18:57:09 29° SSE 18:57:09 29° SSE
USA 238 DEB 3.4 18:55:26 10° SSW 19:01:03 73° SSW 19:01:03 73° SSW
USA 238 3.4 18:55:32 10° SSW 19:01:08 72° SSW 19:01:08 72° SSW
Intelsat 5-3 Rocket 4.3 19:02:19 10° W 19:04:03 30° W 19:04:03 30° W
CZ-4 R/B 3.9 19:08:41 10° SSW 19:10:02 18° SW 19:10:02 18° SW
Atlas Centaur 2 3.1 19:13:37 10° WSW 19:18:25 45° S 19:18:25 45° S
Hubble Space Telescope 3.9 19:19:51 10° WSW 19:19:55 10° WSW 19:19:55 10° WSW
Terra 4.2 19:28:26 10° S 19:29:30 17° S 19:29:30 17° S
USA 281 3.6 19:28:31 10° SSE 19:33:51 57° SSW 19:33:51 57° SSW
CZ-3 Stage 3 4.4 19:35:05 10° WSW 19:35:59 14° WSW 19:35:59 14° WSW
USA 59 Rocket 2.9 19:38:17 10° S 19:44:57 26° SE 19:44:57 26° SE
SL-16 R/B 4.4 19:47:25 10° S 19:48:56 17° SSE 19:48:56 17° SSE
USA 59 Rocket 3.2 21:27:06 10° SW 21:30:38 25° SW 21:30:38 25° SW
CZ-2D R/B 4.3 23:37:09 22° SSE 23:37:09 22° SSE 23:39:05 10° S
Resurs 1-4 Rocket 4.3 23:37:51 21° S 23:37:51 21° S 23:39:36 10° S
Cosmos 2263 Rocket 4.4 23:44:17 19° S 23:44:17 19° S 23:45:58 10° S
